Central Park, NY

6:12 PM EDT on August 17, 2017 (GMT -0400)
Central Park

Weather History for KNYC - March, 2010

Change the Weather History Date:

Saturday, March 13, 2010

  Actual Average Record
Temperature  
Mean Temperature 42 °F 41 °F  
Max Temperature 46 °F 49 °F 85 °F (1990)
Min Temperature 38 °F 34 °F 6 °F (1888)
Degree Days  
Heating Degree Days 23 24  
Month to date heating degree days 264 330  
Since 1 July heating degree days 3796 3852  
Cooling Degree Days 0 0  
Month to date cooling degree days 0 0  
Year to date cooling degree days 0 0  
Moisture  
Dew Point 41 °F    
Average Humidity 95    
Maximum Humidity 100    
Minimum Humidity 89    
Precipitation  
Precipitation 3.86 in 0.12 in 3.86 in (2010)
Month to date precipitation 4.15 1.67  
Year to date precipitation 12.92 8.41  
Snow  
Snow 0.00 in 0.20 in 10.20 in (1993)
Month to date snowfall T 2.4  
Since 1 July snowfall 51.4 23.7  
Snow Depth 0.00 in    
Sea Level Pressure  
Sea Level Pressure 29.68 in    
Wind  
Wind Speed 23 mph (ENE)    
Max Wind Speed 37 mph    
Max Gust Speed 53 mph    
Visibility 3 miles    
Events Rain    
T = Trace of Precipitation, MM = Missing Value Source: NWS Daily Summary

Daily Weather History Graph

Daily Weather History Graph

Search for Another Location

Airport or City:

Trip Planner

Search our weather history database for the weather conditions in past years. The results will help you decide how hot, cold, wet, or windy it might be!

Date:

Astronomy

Mar. 13, 2010 Rise Set
Actual Time 6:10 AM EST 6:00 PM EST
Civil Twilight 5:43 AM EST 6:27 PM EST
Nautical Twilight 5:11 AM EST 6:59 PM EST
Astronomical Twilight 4:39 AM EST 7:31 PM EST
Moon 4:55 AM EST (3/13) 4:10 PM EST (3/13)
Length of Visible Light 12h 44m
Length of Day
11h 49m
Waning Crescent, 4% of the Moon is Illuminated
Mar 13
Waning Crescent
Mar 15
New
Mar 23
First Quarter
Mar 29
Full
Apr 6
Last Quarter

Hourly Weather History & Observations

Time (EST) Temp. Windchill Dew Point Humidity Pressure Visibility Wind Dir Wind Speed Gust Speed Precip Events Conditions
12:51 AM 39.0 °F 29.6 °F 36.0 °F 89% 30.01 in 10.0 mi ENE 18.4 mph 26.5 mph 0.03 in   Overcast
1:51 AM 37.9 °F 26.6 °F 36.0 °F 93% 29.98 in 5.0 mi NE 25.3 mph 36.8 mph 0.06 in Rain Light Rain
2:51 AM 37.9 °F 27.9 °F 36.0 °F 93% 29.96 in 5.0 mi ENE 19.6 mph 33.4 mph 0.08 in Rain Light Rain
3:51 AM 37.9 °F 28.2 °F 37.0 °F 97% 29.94 in 5.0 mi ENE 18.4 mph 29.9 mph 0.09 in Rain Rain
4:51 AM 39.0 °F 29.3 °F 37.0 °F 93% 29.92 in 6.0 mi NE 19.6 mph 35.7 mph 0.13 in Rain Light Rain
5:51 AM 39.0 °F 29.6 °F 37.0 °F 93% 29.90 in 5.0 mi NE 18.4 mph 29.9 mph 0.09 in Rain Light Rain
6:51 AM 39.0 °F 28.3 °F 37.0 °F 93% 29.89 in 6.0 mi ENE 24.2 mph 33.4 mph 0.07 in Rain Light Rain
7:39 AM 39.2 °F 28.3 °F 37.4 °F 93% 29.90 in 2.5 mi NE 25.3 mph 39.1 mph 0.07 in Rain Rain
7:51 AM 39.0 °F 29.9 °F 37.0 °F 93% 29.87 in 3.0 mi ENE 17.3 mph 35.7 mph 0.08 in Rain Light Rain
8:51 AM 39.9 °F 28.4 °F 37.9 °F 93% 29.86 in 4.0 mi ENE 29.9 mph 42.6 mph 0.03 in Rain Light Rain
9:51 AM 41.0 °F 31.1 °F 39.0 °F 93% 29.83 in 6.0 mi ENE 23.0 mph 35.7 mph 0.05 in Rain Light Rain
10:51 AM 42.1 °F 33.3 °F 39.9 °F 92% 29.80 in 3.0 mi NE 19.6 mph 31.1 mph 0.05 in Rain Light Rain
11:08 AM 42.8 °F 32.9 °F 39.2 °F 87% 29.81 in 2.0 mi ENE 26.5 mph 36.8 mph 0.02 in Rain Light Rain
11:51 AM 42.1 °F 32.8 °F 39.9 °F 92% 29.76 in 2.0 mi ENE 21.9 mph 38.0 mph 0.10 in Rain Rain
11:59 AM 42.8 °F 34.3 °F 39.2 °F 87% 29.78 in 1.8 mi NE 19.6 mph 35.7 mph 0.02 in Rain Rain
12:49 PM 42.8 °F 33.5 °F 41.0 °F 93% 29.75 in 2.0 mi ENE 23.0 mph 36.8 mph 0.16 in Rain Rain
12:51 PM 42.1 °F 32.1 °F 41.0 °F 96% 29.73 in 2.0 mi NE 25.3 mph 36.8 mph 0.17 in Rain Rain
12:59 PM 42.8 °F 34.3 °F 39.2 °F 87% 29.75 in 1.8 mi ENE 19.6 mph 36.8 mph 0.02 in Rain Rain
1:06 PM 42.8 °F 34.0 °F 41.0 °F 93% 29.75 in 2.0 mi ENE 20.7 mph 35.7 mph 0.03 in Rain Rain
1:18 PM 42.8 °F 34.3 °F 39.2 °F 87% 29.74 in 1.8 mi NE 19.6 mph 33.4 mph 0.07 in Rain Rain
1:51 PM 42.1 °F 32.1 °F 39.9 °F 92% 29.69 in 1.5 mi ENE 25.3 mph 38.0 mph 0.18 in Rain Rain
2:36 PM 42.8 °F 33.3 °F 39.2 °F 87% 29.66 in 0.8 mi NE 24.2 mph 34.5 mph 0.23 in Rain Heavy Rain
2:51 PM 42.1 °F 32.3 °F 41.0 °F 96% 29.62 in 1.2 mi ENE 24.2 mph 39.1 mph 0.33 in Rain Rain
3:51 PM 42.1 °F 32.1 °F 41.0 °F 96% 29.59 in 0.8 mi NE 25.3 mph 52.9 mph 0.25 in Rain Rain
4:09 PM 42.8 °F 33.3 °F 42.8 °F 100% 29.60 in 1.2 mi ENE 24.2 mph 42.6 mph 0.09 in Rain Rain
4:26 PM 42.8 °F 32.7 °F 42.8 °F 100% 29.60 in 0.8 mi NE 27.6 mph 51.8 mph 0.16 in Rain Rain
4:35 PM 42.8 °F 33.3 °F 42.8 °F 100% 29.60 in 1.0 mi ENE 24.2 mph 46.0 mph 0.20 in Rain Heavy Rain
4:42 PM 42.8 °F 32.3 °F 42.8 °F 100% 29.59 in 0.8 mi NE 29.9 mph 41.4 mph 0.25 in Rain Heavy Rain
4:51 PM 42.1 °F 31.3 °F 42.1 °F 100% 29.56 in 0.8 mi ENE 29.9 mph 42.6 mph 0.30 in Rain Heavy Rain
5:29 PM 42.8 °F 33.1 °F 42.8 °F 100% 29.57 in 1.8 mi ENE 25.3 mph 46.0 mph 0.24 in Rain Light Rain
5:51 PM 43.0 °F 34.5 °F 42.1 °F 97% 29.54 in 1.8 mi NE 19.6 mph 39.1 mph 0.31 in Rain Rain
6:03 PM 42.8 °F 33.1 °F 41.0 °F 93% 29.57 in 2.5 mi ENE 25.3 mph 38.0 mph 0.04 in Rain Light Rain
6:11 PM 42.8 °F 33.1 °F 41.0 °F 93% 29.56 in 4.0 mi ENE 25.3 mph 40.3 mph 0.05 in Rain Light Rain
6:51 PM 43.0 °F 33.5 °F 41.0 °F 93% 29.53 in 3.0 mi NE 24.2 mph 40.3 mph 0.08 in Rain Rain
7:00 PM 42.8 °F 33.8 °F 42.8 °F 100% 29.55 in 2.5 mi ENE 21.9 mph 40.3 mph 0.02 in Rain Rain
7:07 PM 42.8 °F 33.5 °F 42.8 °F 100% 29.55 in 5.0 mi NE 23.0 mph 40.3 mph 0.03 in Rain Light Rain
7:48 PM 42.8 °F 32.9 °F 42.8 °F 100% 29.56 in 2.0 mi NE 26.5 mph 40.3 mph 0.10 in Rain Rain
7:51 PM 43.0 °F 33.1 °F 42.1 °F 97% 29.54 in 1.8 mi ENE 26.5 mph 39.1 mph 0.11 in Rain Heavy Rain
8:51 PM 44.1 °F 34.4 °F 42.1 °F 93% 29.54 in 2.0 mi ENE 27.6 mph 38.0 mph 0.42 in Rain Heavy Rain
9:05 PM 44.6 °F 37.4 °F 42.8 °F 93% 29.56 in 1.8 mi NE 16.1 mph 33.4 mph 0.09 in Rain Heavy Rain
9:51 PM 44.1 °F 35.7 °F 43.0 °F 96% 29.53 in 1.5 mi NE 20.7 mph 41.4 mph 0.39 in Rain Heavy Rain
10:24 PM 44.6 °F 36.9 °F 42.8 °F 93% 29.55 in 2.0 mi ENE 18.4 mph 31.1 mph 0.18 in Rain Heavy Rain
10:34 PM 44.6 °F 36.6 °F 42.8 °F 93% 29.54 in 2.5 mi ENE 19.6 mph 39.1 mph 0.22 in Rain Rain
10:44 PM 44.6 °F 36.9 °F 42.8 °F 93% 29.54 in 2.0 mi NE 18.4 mph 32.2 mph 0.26 in Rain Rain
10:51 PM 45.0 °F 37.9 °F 43.0 °F 93% 29.51 in 2.0 mi ENE 16.1 mph 33.4 mph 0.30 in Rain Rain
11:21 PM 46.4 °F 37.9 °F 44.6 °F 93% 29.53 in 2.5 mi NE 25.3 mph 33.4 mph 0.11 in Rain Rain
11:36 PM 44.6 °F 36.4 °F 42.8 °F 93% 29.52 in 3.0 mi NE 20.7 mph 34.5 mph 0.15 in Rain Light Rain
11:51 PM 45.0 °F 36.0 °F 43.0 °F 93% 29.49 in 5.0 mi NE 25.3 mph 35.7 mph 0.16 in Rain Light Rain